Time,TemperatureF,DewpointF,PressureIn,WindDirection,WindDirectionDegrees,WindSpeedMPH,WindSpeedGustMPH,Humidity,HourlyPrecipIn,Conditions,Clouds,dailyrainin,SoftwareType,DateUTC
2013-01-11 00:01:00,16.7,16.2,30.55,North,0,0.0,-999.0,98,-99.99,,,0.00,Acu-Link.com,2013-01-11 05:01:00,
2013-01-11 00:16:00,16.3,15.9,30.54,North,0,0.0,-999.0,98,-99.99,,,0.00,Acu-Link.com,2013-01-11 05:16:00,
2013-01-11 00:31:00,16.3,15.9,30.54,North,0,0.0,-999.0,98,-99.99,,,0.00,Acu-Link.com,2013-01-11 05:31:00,
2013-01-11 00:46:00,16.0,15.5,30.55,North,0,0.0,-999.0,98,-99.99,,,0.00,Acu-Link.com,2013-01-11 05:46:00,
2013-01-11 01:02:00,16.0,15.5,30.55,North,0,0.0,-999.0,98,-99.99,,,0.00,Acu-Link.com,2013-01-11 06:02:00,
2013-01-11 01:17:00,15.6,15.2,30.54,North,0,0.0,-999.0,98,-99.99,,,0.00,Acu-Link.com,2013-01-11 06:17:00,
2013-01-11 01:32:00,16.2,15.7,30.54,North,0,0.0,-999.0,98,-99.99,,,0.00,Acu-Link.com,2013-01-11 06:32:00,
2013-01-11 01:47:00,15.6,15.2,30.54,North,0,0.0,-999.0,98,-99.99,,,0.00,Acu-Link.com,2013-01-11 06:47:00,
2013-01-11 02:02:00,15.8,15.3,30.54,North,0,0.0,-999.0,98,-99.99,,,0.00,Acu-Link.com,2013-01-11 07:02:00,
2013-01-11 02:18:00,15.8,15.3,30.53,North,0,0.0,-999.0,98,-99.99,,,0.00,Acu-Link.com,2013-01-11 07:18:00,
2013-01-11 02:33:00,15.8,15.3,30.53,North,0,0.0,-999.0,98,-99.99,,,0.00,Acu-Link.com,2013-01-11 07:33:00,
2013-01-11 02:48:00,16.0,15.5,30.52,North,0,0.0,-999.0,98,-99.99,,,0.00,Acu-Link.com,2013-01-11 07:48:00,
2013-01-11 03:03:00,16.0,15.5,30.51,North,0,0.0,-999.0,98,-99.99,,,0.00,Acu-Link.com,2013-01-11 08:03:00,
2013-01-11 03:18:00,16.2,15.7,30.50,North,0,0.0,-999.0,98,-99.99,,,0.00,Acu-Link.com,2013-01-11 08:18:00,
2013-01-11 03:34:00,15.8,15.3,30.50,North,0,1.6,-999.0,98,-99.99,,,0.00,Acu-Link.com,2013-01-11 08:34:00,
2013-01-11 03:49:00,15.3,14.8,30.48,North,0,0.0,-999.0,98,-99.99,,,0.00,Acu-Link.com,2013-01-11 08:49:00,
2013-01-11 04:11:00,15.3,14.8,30.48,North,0,0.0,-999.0,98,-99.99,,,0.00,Acu-Link.com,2013-01-11 09:11:00,
2013-01-11 04:26:00,16.3,15.9,30.47,North,0,0.0,-999.0,98,-99.99,,,0.00,Acu-Link.com,2013-01-11 09:26:00,
2013-01-11 04:41:00,14.4,13.9,30.47,North,0,0.0,-999.0,98,-99.99,,,0.00,Acu-Link.com,2013-01-11 09:41:00,
2013-01-11 04:57:00,14.9,14.4,30.45,North,0,0.0,-999.0,98,-99.99,,,0.00,Acu-Link.com,2013-01-11 09:57:00,
2013-01-11 05:12:00,14.7,14.3,30.46,North,0,0.0,-999.0,98,-99.99,,,0.00,Acu-Link.com,2013-01-11 10:12:00,
2013-01-11 05:27:00,14.7,14.3,30.45,North,0,0.0,-999.0,98,-99.99,,,0.00,Acu-Link.com,2013-01-11 10:27:00,
2013-01-11 05:42:00,14.9,14.4,30.45,North,0,0.0,-999.0,98,-99.99,,,0.00,Acu-Link.com,2013-01-11 10:42:00,
2013-01-11 05:57:00,14.7,14.3,30.45,North,0,0.0,-999.0,98,-99.99,,,0.00,Acu-Link.com,2013-01-11 10:57:00,
2013-01-11 06:13:00,15.3,14.8,30.45,North,0,0.0,-999.0,98,-99.99,,,0.00,Acu-Link.com,2013-01-11 11:13:00,
2013-01-11 06:28:00,16.2,15.7,30.45,North,0,0.0,-999.0,98,-99.99,,,0.00,Acu-Link.com,2013-01-11 11:28:00,
2013-01-11 06:43:00,16.0,15.5,30.45,North,0,0.0,-999.0,98,-99.99,,,0.00,Acu-Link.com,2013-01-11 11:43:00,
2013-01-11 06:58:00,15.8,15.3,30.45,North,0,0.0,-999.0,98,-99.99,,,0.00,Acu-Link.com,2013-01-11 11:58:00,
2013-01-11 07:13:00,16.3,15.9,30.43,North,0,0.0,-999.0,98,-99.99,,,0.00,Acu-Link.com,2013-01-11 12:13:00,
2013-01-11 07:29:00,18.1,17.7,30.42,North,0,0.0,-999.0,98,-99.99,,,0.00,Acu-Link.com,2013-01-11 12:29:00,
2013-01-11 07:44:00,18.9,18.4,30.41,North,0,0.0,-999.0,98,-99.99,,,0.00,Acu-Link.com,2013-01-11 12:44:00,
2013-01-11 07:59:00,18.9,18.4,30.42,North,0,0.0,-999.0,98,-99.99,,,0.00,Acu-Link.com,2013-01-11 12:59:00,
2013-01-11 08:14:00,19.4,18.9,30.41,North,0,0.0,-999.0,98,-99.99,,,0.00,Acu-Link.com,2013-01-11 13:14:00,
2013-01-11 08:29:00,20.3,19.8,30.41,North,0,0.0,-999.0,98,-99.99,,,0.00,Acu-Link.com,2013-01-11 13:29:00,
2013-01-11 08:45:00,20.5,20.0,30.40,North,0,0.0,-999.0,98,-99.99,,,0.00,Acu-Link.com,2013-01-11 13:45:00,
2013-01-11 09:00:00,22.1,21.6,30.39,North,0,0.0,-999.0,98,-99.99,,,0.00,Acu-Link.com,2013-01-11 14:00:00,
2013-01-11 09:15:00,22.6,22.2,30.39,North,0,0.0,-999.0,98,-99.99,,,0.00,Acu-Link.com,2013-01-11 14:15:00,
2013-01-11 09:30:00,23.5,23.1,30.38,North,0,3.8,-999.0,98,-99.99,,,0.00,Acu-Link.com,2013-01-11 14:30:00,
2013-01-11 09:45:00,24.3,22.5,30.37,North,0,2.7,-999.0,93,-99.99,,,0.00,Acu-Link.com,2013-01-11 14:45:00,
2013-01-11 10:01:00,24.8,21.8,30.36,North,0,2.7,-999.0,88,-99.99,,,0.00,Acu-Link.com,2013-01-11 15:01:00,
2013-01-11 10:16:00,25.9,21.7,30.35,North,0,1.6,-999.0,84,-99.99,,,0.00,Acu-Link.com,2013-01-11 15:16:00,
2013-01-11 10:31:00,25.7,21.3,30.34,North,0,3.1,-999.0,83,-99.99,,,0.00,Acu-Link.com,2013-01-11 15:31:00,
2013-01-11 10:46:00,27.0,21.9,30.33,ENE,67,4.3,-999.0,81,-99.99,,,0.00,Acu-Link.com,2013-01-11 15:46:00,
2013-01-11 11:01:00,28.2,22.3,30.31,ENE,67,3.8,-999.0,78,-99.99,,,0.00,Acu-Link.com,2013-01-11 16:01:00,
2013-01-11 11:17:00,28.2,22.3,30.29,NE,45,4.3,-999.0,78,-99.99,,,0.00,Acu-Link.com,2013-01-11 16:17:00,
2013-01-11 11:32:00,28.4,22.1,30.29,ENE,67,2.2,-999.0,77,-99.99,,,0.00,Acu-Link.com,2013-01-11 16:32:00,
2013-01-11 11:47:00,29.1,22.8,30.29,ENE,67,2.2,-999.0,77,-99.99,,,0.00,Acu-Link.com,2013-01-11 16:47:00,
2013-01-11 12:02:00,29.3,23.0,30.27,NE,45,3.1,-999.0,77,-99.99,,,0.00,Acu-Link.com,2013-01-11 17:02:00,
2013-01-11 12:17:00,29.1,23.1,30.25,NE,45,2.2,-999.0,78,-99.99,,,0.00,Acu-Link.com,2013-01-11 17:17:00,
2013-01-11 12:33:00,29.5,23.2,30.24,NE,45,3.1,-999.0,77,-99.99,,,0.00,Acu-Link.com,2013-01-11 17:33:00,
2013-01-11 12:48:00,29.7,23.7,30.23,ENE,67,1.6,-999.0,78,-99.99,,,0.00,Acu-Link.com,2013-01-11 17:48:00,
2013-01-11 13:03:00,30.2,23.9,30.23,North,0,0.0,-999.0,77,-99.99,,,0.00,Acu-Link.com,2013-01-11 18:03:00,
2013-01-11 13:18:00,29.8,23.8,30.24,NE,45,4.3,-999.0,78,-99.99,,,0.00,Acu-Link.com,2013-01-11 18:18:00,
2013-01-11 13:33:00,29.5,23.2,30.22,North,0,1.1,-999.0,77,-99.99,,,0.00,Acu-Link.com,2013-01-11 18:33:00,
2013-01-11 13:49:00,29.5,24.4,30.21,NE,45,4.7,-999.0,81,-99.99,,,0.00,Acu-Link.com,2013-01-11 18:49:00,
2013-01-11 14:04:00,28.9,24.1,30.19,NE,45,5.8,-999.0,82,-99.99,,,0.00,Acu-Link.com,2013-01-11 19:04:00,
2013-01-11 14:19:00,28.9,23.9,30.18,NE,45,4.7,-999.0,81,-99.99,,,0.00,Acu-Link.com,2013-01-11 19:19:00,
2013-01-11 14:34:00,28.8,24.0,30.17,ENE,67,6.3,-999.0,82,-99.99,,,0.00,Acu-Link.com,2013-01-11 19:34:00,
2013-01-11 14:49:00,28.6,23.5,30.16,North,0,3.8,-999.0,81,-99.99,,,0.00,Acu-Link.com,2013-01-11 19:49:00,
2013-01-11 15:05:00,28.9,24.7,30.15,NE,45,3.8,-999.0,84,-99.99,,,0.00,Acu-Link.com,2013-01-11 20:05:00,
2013-01-11 15:20:00,28.2,24.9,30.16,North,0,0.0,-999.0,87,-99.99,,,0.00,Acu-Link.com,2013-01-11 20:20:00,
2013-01-11 15:35:00,27.7,23.8,30.15,North,0,2.7,-999.0,85,-99.99,,,0.00,Acu-Link.com,2013-01-11 20:35:00,
2013-01-11 15:50:00,27.5,23.6,30.13,North,0,0.0,-999.0,85,-99.99,,,0.00,Acu-Link.com,2013-01-11 20:50:00,
2013-01-11 16:05:00,27.1,24.1,30.13,North,0,0.0,-999.0,88,-99.99,,,0.00,Acu-Link.com,2013-01-11 21:05:00,
2013-01-11 16:21:00,27.1,25.9,30.12,North,0,2.7,-999.0,95,-99.99,,,0.00,Acu-Link.com,2013-01-11 21:21:00,
2013-01-11 16:36:00,27.0,24.7,30.11,North,0,2.7,-999.0,91,-99.99,,,0.00,Acu-Link.com,2013-01-11 21:36:00,
2013-01-11 16:51:00,26.8,24.2,30.11,North,0,0.0,-999.0,90,-99.99,,,0.00,Acu-Link.com,2013-01-11 21:51:00,
2013-01-11 17:06:00,26.8,24.0,30.11,North,0,0.0,-999.0,89,-99.99,,,0.00,Acu-Link.com,2013-01-11 22:06:00,
2013-01-11 17:21:00,26.8,24.2,30.11,North,0,2.2,-999.0,90,-99.99,,,0.00,Acu-Link.com,2013-01-11 22:21:00,
2013-01-11 17:37:00,26.8,23.4,30.10,North,0,3.1,-999.0,87,-99.99,,,0.00,Acu-Link.com,2013-01-11 22:37:00,
2013-01-11 17:52:00,27.0,23.9,30.09,North,0,0.0,-999.0,88,-99.99,,,0.00,Acu-Link.com,2013-01-11 22:52:00,
2013-01-11 18:07:00,27.0,24.7,30.09,North,0,2.2,-999.0,91,-99.99,,,0.00,Acu-Link.com,2013-01-11 23:07:00,
2013-01-11 18:22:00,27.0,24.4,30.09,North,0,0.0,-999.0,90,-99.99,,,0.00,Acu-Link.com,2013-01-11 23:22:00,
2013-01-11 18:38:00,27.1,25.1,30.08,North,0,0.0,-999.0,92,-99.99,,,0.00,Acu-Link.com,2013-01-11 23:38:00,
2013-01-11 18:53:00,27.1,26.2,30.09,North,0,0.0,-999.0,96,-99.99,,,0.00,Acu-Link.com,2013-01-11 23:53:00,
2013-01-11 19:08:00,27.1,26.7,30.08,North,0,0.0,-999.0,98,-99.99,,,0.00,Acu-Link.com,2013-01-12 00:08:00,
2013-01-11 19:23:00,27.1,24.9,30.07,North,0,0.0,-999.0,91,-99.99,,,0.00,Acu-Link.com,2013-01-12 00:23:00,
2013-01-11 19:38:00,27.1,26.7,30.07,North,0,0.0,-999.0,98,-99.99,,,0.00,Acu-Link.com,2013-01-12 00:38:00,
2013-01-11 19:54:00,27.1,24.9,30.06,North,0,2.2,-999.0,91,-99.99,,,0.00,Acu-Link.com,2013-01-12 00:54:00,
2013-01-11 20:09:00,27.3,24.8,30.07,North,0,2.2,-999.0,90,-99.99,,,0.00,Acu-Link.com,2013-01-12 01:09:00,
2013-01-11 20:24:00,27.3,25.6,30.06,North,0,0.0,-999.0,93,-99.99,,,0.00,Acu-Link.com,2013-01-12 01:24:00,
2013-01-11 20:39:00,27.1,26.7,30.05,North,0,0.0,-999.0,98,-99.99,,,0.00,Acu-Link.com,2013-01-12 01:39:00,
2013-01-11 20:54:00,27.1,26.7,30.05,North,0,0.0,-999.0,98,-99.99,,,0.00,Acu-Link.com,2013-01-12 01:54:00,
2013-01-11 21:10:00,27.0,26.5,30.05,North,0,0.0,-999.0,98,-99.99,,,0.00,Acu-Link.com,2013-01-12 02:10:00,
2013-01-11 21:25:00,27.0,26.5,30.06,North,0,0.0,-999.0,98,-99.99,,,0.00,Acu-Link.com,2013-01-12 02:25:00,
2013-01-11 21:40:00,27.0,26.5,30.07,North,0,0.0,-999.0,98,-99.99,,,0.00,Acu-Link.com,2013-01-12 02:40:00,
2013-01-11 21:55:00,27.0,26.5,30.07,North,0,0.0,-999.0,98,-99.99,,,0.00,Acu-Link.com,2013-01-12 02:55:00,
2013-01-11 22:10:00,26.8,26.3,30.05,North,0,0.0,-999.0,98,-99.99,,,0.00,Acu-Link.com,2013-01-12 03:10:00,
2013-01-11 22:26:00,26.8,26.3,30.05,North,0,0.0,-999.0,98,-99.99,,,0.00,Acu-Link.com,2013-01-12 03:26:00,
2013-01-11 22:41:00,26.8,26.3,30.05,North,0,0.0,-999.0,98,-99.99,,,0.00,Acu-Link.com,2013-01-12 03:41:00,
2013-01-11 22:56:00,26.8,26.3,30.05,North,0,0.0,-999.0,98,-99.99,,,0.00,Acu-Link.com,2013-01-12 03:56:00,
2013-01-11 23:11:00,27.0,26.5,30.05,North,0,0.0,-999.0,98,-99.99,,,0.00,Acu-Link.com,2013-01-12 04:11:00,
2013-01-11 23:26:00,27.0,26.5,30.04,North,0,0.0,-999.0,98,-99.99,,,0.00,Acu-Link.com,2013-01-12 04:26:00,
2013-01-11 23:42:00,27.1,26.7,30.04,North,0,0.0,-999.0,98,-99.99,,,0.00,Acu-Link.com,2013-01-12 04:42:00,
2013-01-11 23:57:00,27.3,26.8,30.04,North,0,0.0,-999.0,98,-99.99,,,0.00,Acu-Link.com,2013-01-12 04:57:00,